Location: Pedholt
(56.0260°N, 10.2097°E)
Time: 04:19:34
(UTC+00:00)

MOZ.5/SAFIR/RUBIN 5/SL-8 - Pass Details

Date: 14 July 2020
Orbit: 677 x 706 km, 98.1° (Epoch: 14 August)

Event Time Altitude Azimuth Distance (km) Brightness Sun altitude
Exits shadow 00:25:52 11° 161° (SSE) 2,135 5.8 -11.3°
Maximum altitude 00:30:33 88° 75° (ENE) 714 3.9 -11.1°
Drops below altitude 10° 00:35:23 10° 345° (NNW) 2,192 7.3 -10.9°
Sets 00:37:39 0° 345° (NNW) 3,116 8.2 -10.8°
